Location: Heilwood
(40.6210°N, 78.9150°W)
Time: 06:50:36
(UTC-05:00)

BREEZE-M DEB (TANK) - Visible Passes

Search period start: 11 December 2016 00:00
Search period end: 21 December 2016 00:00
Orbit: 308 x 15863 km, 49.5° (Epoch: 10 December)

Date Brightness Start Highest point End Pass type
(mag) Time Alt. Az. Time Alt. Az. Time Alt. Az.
11 Dec 5.0 03:58:17 70° NNW 03:59:56 80° NNE 04:47:23 10° SE visible
12 Dec 5.0 04:01:11 70° NW 04:02:58 83° NNE 04:52:06 10° SE visible
13 Dec 5.0 04:04:04 70° NW 04:06:00 86° NNE 04:56:45 10° SE visible
14 Dec 5.1 04:06:58 70° WNW 04:09:01 90° NNE 05:01:16 10° SE visible
15 Dec 5.1 04:09:52 69° WNW 04:12:03 87° SW 05:05:42 10° SE visible
16 Dec 5.1 04:12:46 68° WNW 04:15:04 84° SW 05:10:00 10° SE visible
17 Dec 5.2 04:15:40 66° WNW 04:18:07 80° SW 05:14:11 10° SE visible
18 Dec 5.2 04:18:35 64° W 04:21:10 77° SW 05:18:13 10° SE visible
19 Dec 5.3 04:21:29 62° W 04:24:13 74° SW 05:22:08 10° SE visible
20 Dec 5.4 04:24:25 60° W 04:27:16 70° SW 05:25:54 10° SSE visible
